Find Starlink 31414

NORAD ID: 59418 Int'l Des: 2024-064 Owner: SPXS Country: US Constellation: starlink operational
LEOCIRCULAR

現在のビュー

3D地球を読み込み中...

About Starlink 31414

Starlink 31414 (NORAD 59418) is a starlink constellation satellite (v2 mini) launched Apr 5, 2024 by SPXS of US. It operates in LEO, CIRCULAR orbit with a mass of 730.00 kg.

Starlink 31414について

説明を読み込み中...

次回通過

Passes for default location (London). Set your location on the main map for personalized predictions.

高度履歴

Loading altitude history...

軌道要素

1 59418U 24064W 26173.49526912 .00000826 00000-0 39535-4 0 9995
2 59418 43.0019 184.3547 0001264 254.7956 105.2756 15.27580593125255
Epoch: Jun 22, 2026 • Age: 20 hours

現在のステータス

高度 492.9 km
速度 7.62 km/s
衛星直下点 -36.56°S, 23.97°E
打ち上げ日 Apr 5, 2024
運用期間 2.2 years
タイプ internet

技術仕様

分類 Payload
質量 730.00 kg
乾燥質量 700.00 kg
総質量 730.00 kg
長さ 0.30 m
直径 4.10 m
スパン 29.00 m
形状 Box + pan
製造者 SPXS
バスタイプ Starlink V2M
フェーズステータス In Orbit
所有者/国 SPXS/US

Most Searched